sat.trackr.live / text

‹ back to catalog

FREGAT DEB

NORAD 49271 · 2011-037PF

DEBRIS UNKNOWN UNKNOWN

§ Identity

Operator
Country
CIS
Launch date
2011-07-18
Launch site
TYMSC
Launch vehicle
Mass (kg)
RCS (m²)

Purposes: station

External: N2YO · Heavens-Above · Gunter

§ Orbital elements

Epoch: 2026-09-13T17:37:36.032448Z

Period
115.72 min
Inclination
51.6442°
Eccentricity
0.0941670
Mean motion
12.44406137 rev/d
Perigee alt
747.3 km
Apogee alt
2,228.7 km
Semi-major
7,866.1 km
B*
2.1697e-2
RAAN
95.2041°
Arg perigee
119.1674°
Mean anomaly
250.6712°
Rev number
23,606

§ Raw data

FREGAT DEB1 49271U 11037PF  26256.73444482  .00015379  00000+0  21697-1 0  99922 49271  51.6442  95.2041 0941670 119.1674 250.6712 12.44406137236066

JSON: /api/v1/satellites/49271 · /tle

For live sub-satellite position, see the globe view (requires WebGL).

§ Visibility from observer

Set your observer location to see the next 7 days of passes ≥ 10°. The values pass through the URL so the page stays shareable.

No JS? Fill the form by hand. The geolocation button needs JavaScript.